Time,TemperatureF,DewpointF,PressureIn,WindDirection,WindDirectionDegrees,WindSpeedMPH,WindSpeedGustMPH,Humidity,HourlyPrecipIn,Conditions,Clouds,dailyrainin,SoftwareType,DateUTC
2013-02-05 00:03:00,46.6,38.8,29.96,SW,225,6.9,12.8,74,0.00,,,0.00,WUHU21623XXSP,2013-02-04 23:03:00,
2013-02-05 00:08:00,46.6,38.4,29.96,WSW,247,11.6,17.4,73,0.00,,,0.00,WUHU21623XXSP,2013-02-04 23:08:00,
2013-02-05 00:13:00,46.6,38.1,29.96,West,270,13.0,17.4,72,0.00,,,0.00,WUHU21623XXSP,2013-02-04 23:13:00,
2013-02-05 00:18:00,46.6,38.4,29.96,West,270,17.2,17.2,73,0.00,,,0.00,WUHU21623XXSP,2013-02-04 23:18:00,
2013-02-05 00:23:00,46.6,38.4,29.96,SSW,202,9.2,17.2,73,0.00,,,0.00,WUHU21623XXSP,2013-02-04 23:23:00,
2013-02-05 00:28:00,46.6,38.4,29.96,WSW,247,15.7,15.7,73,0.00,,,0.00,WUHU21623XXSP,2013-02-04 23:28:00,
2013-02-05 00:33:00,46.6,38.8,29.96,WSW,247,4.9,15.7,74,0.00,,,0.00,WUHU21623XXSP,2013-02-04 23:33:00,
2013-02-05 00:38:00,46.6,38.8,29.96,WSW,247,12.8,14.5,74,0.00,,,0.00,WUHU21623XXSP,2013-02-04 23:38:00,
2013-02-05 00:43:00,46.6,38.8,29.95,WSW,247,9.4,14.5,74,0.00,,,0.00,WUHU21623XXSP,2013-02-04 23:43:00,
2013-02-05 00:48:00,46.6,38.8,29.95,WSW,247,8.3,10.7,74,0.00,,,0.00,WUHU21623XXSP,2013-02-04 23:48:00,
2013-02-05 00:53:00,46.6,38.8,29.95,SW,225,10.3,14.1,74,0.00,,,0.00,WUHU21623XXSP,2013-02-04 23:53:00,
2013-02-05 00:58:00,46.6,38.8,29.94,WSW,247,6.3,14.1,74,0.00,,,0.00,WUHU21623XXSP,2013-02-04 23:58:00,
2013-02-05 01:03:00,46.6,38.8,29.94,West,270,2.9,12.1,74,0.00,,,0.00,WUHU21623XXSP,2013-02-05 00:03:00,
2013-02-05 01:08:00,46.6,38.8,29.94,WSW,247,9.2,15.7,74,0.00,,,0.00,WUHU21623XXSP,2013-02-05 00:08:00,
2013-02-05 01:13:00,46.6,38.8,29.94,WSW,247,9.8,17.2,74,0.00,,,0.00,WUHU21623XXSP,2013-02-05 00:13:00,
2013-02-05 01:18:00,46.4,38.6,29.93,SW,225,14.5,17.2,74,0.00,,,0.00,WUHU21623XXSP,2013-02-05 00:18:00,
2013-02-05 01:23:00,46.2,38.4,29.93,West,270,3.1,14.5,74,0.00,,,0.00,WUHU21623XXSP,2013-02-05 00:23:00,
2013-02-05 01:28:00,46.2,38.4,29.93,West,270,4.0,11.9,74,0.00,,,0.00,WUHU21623XXSP,2013-02-05 00:28:00,
2013-02-05 01:33:00,46.2,38.4,29.93,WSW,247,11.2,11.9,74,0.00,,,0.00,WUHU21623XXSP,2013-02-05 00:33:00,
2013-02-05 01:38:00,46.2,38.8,29.93,SW,225,7.6,11.9,75,0.00,,,0.00,WUHU21623XXSP,2013-02-05 00:38:00,
2013-02-05 01:43:00,46.2,38.8,29.92,WSW,247,5.6,11.9,75,0.00,,,0.00,WUHU21623XXSP,2013-02-05 00:43:00,
2013-02-05 01:48:00,46.2,38.8,29.92,WNW,292,7.6,9.6,75,0.00,,,0.00,WUHU21623XXSP,2013-02-05 00:48:00,
2013-02-05 01:53:00,46.0,38.9,29.91,SW,225,7.6,7.6,76,0.00,,,0.00,WUHU21623XXSP,2013-02-05 00:53:00,
2013-02-05 01:58:00,45.7,38.6,29.91,West,270,7.8,12.1,76,0.00,,,0.00,WUHU21623XXSP,2013-02-05 00:58:00,
2013-02-05 02:03:00,45.7,38.6,29.91,WSW,247,13.0,13.0,76,0.00,,,0.00,WUHU21623XXSP,2013-02-05 01:03:00,
2013-02-05 02:08:00,45.7,38.6,29.91,WSW,247,12.5,13.0,76,0.00,,,0.00,WUHU21623XXSP,2013-02-05 01:08:00,
2013-02-05 02:13:00,45.7,38.9,29.91,SW,225,5.8,17.4,77,0.00,,,0.00,WUHU21623XXSP,2013-02-05 01:13:00,
2013-02-05 02:18:00,45.7,38.9,29.90,SSW,202,2.9,17.4,77,0.00,,,0.00,WUHU21623XXSP,2013-02-05 01:18:00,
2013-02-05 02:23:00,45.7,38.9,29.90,SSE,157,6.9,13.2,77,0.00,,,0.00,WUHU21623XXSP,2013-02-05 01:23:00,
2013-02-05 02:28:00,45.7,38.9,29.90,SSW,202,3.4,15.0,77,0.00,,,0.00,WUHU21623XXSP,2013-02-05 01:28:00,
2013-02-05 02:33:00,45.7,38.9,29.90,WSW,247,11.0,15.0,77,0.00,,,0.00,WUHU21623XXSP,2013-02-05 01:33:00,
2013-02-05 02:38:00,45.7,39.2,29.90,SW,225,8.5,11.0,78,0.00,,,0.00,WUHU21623XXSP,2013-02-05 01:38:00,
2013-02-05 02:43:00,45.7,39.2,29.90,WSW,247,13.0,13.0,78,0.00,,,0.00,WUHU21623XXSP,2013-02-05 01:43:00,
2013-02-05 02:48:00,45.5,39.1,29.90,WSW,247,8.5,13.0,78,0.00,,,0.00,WUHU21623XXSP,2013-02-05 01:48:00,
2013-02-05 02:53:00,45.1,39.0,29.90,SSW,202,14.3,15.4,79,0.00,,,0.00,WUHU21623XXSP,2013-02-05 01:53:00,
2013-02-05 02:58:00,45.1,39.4,29.90,WSW,247,10.3,17.2,80,0.00,,,0.00,WUHU21623XXSP,2013-02-05 01:58:00,
2013-02-05 03:03:00,44.8,39.3,29.90,West,270,9.6,17.2,81,0.00,,,0.00,WUHU21623XXSP,2013-02-05 02:03:00,
2013-02-05 03:08:00,44.6,39.5,29.89,WSW,247,12.1,18.6,82,0.00,,,0.00,WUHU21623XXSP,2013-02-05 02:08:00,
2013-02-05 03:13:00,44.2,39.1,29.89,WSW,247,7.4,18.6,82,0.00,,,0.00,WUHU21623XXSP,2013-02-05 02:13:00,
2013-02-05 03:18:00,43.7,38.9,29.88,WSW,247,5.1,17.0,83,0.00,,,0.00,WUHU21623XXSP,2013-02-05 02:18:00,
2013-02-05 03:23:00,43.5,39.0,29.88,WSW,247,3.8,16.8,84,0.00,,,0.00,WUHU21623XXSP,2013-02-05 02:23:00,
2013-02-05 03:28:00,43.7,39.5,29.87,South,180,5.4,10.1,85,0.00,,,0.00,WUHU21623XXSP,2013-02-05 02:28:00,
2013-02-05 03:33:00,43.9,39.6,29.86,SSW,202,4.3,13.0,85,0.00,,,0.00,WUHU21623XXSP,2013-02-05 02:33:00,
2013-02-05 03:38:00,43.9,40.0,29.86,SW,225,11.6,13.0,86,0.00,,,0.00,WUHU21623XXSP,2013-02-05 02:38:00,
2013-02-05 03:43:00,43.9,40.0,29.85,SW,225,14.3,14.3,86,0.00,,,0.00,WUHU21623XXSP,2013-02-05 02:43:00,
2013-02-05 03:48:00,43.9,40.0,29.85,SSW,202,8.5,14.3,86,0.00,,,0.00,WUHU21623XXSP,2013-02-05 02:48:00,
2013-02-05 03:53:00,43.9,39.6,29.85,SSE,157,8.5,13.4,85,0.00,,,0.00,WUHU21623XXSP,2013-02-05 02:53:00,
2013-02-05 03:58:00,43.9,39.6,29.85,West,270,9.8,10.5,85,0.00,,,0.00,WUHU21623XXSP,2013-02-05 02:58:00,
2013-02-05 04:03:00,43.9,39.6,29.84,SSW,202,4.0,9.8,85,0.00,,,0.00,WUHU21623XXSP,2013-02-05 03:03:00,
2013-02-05 04:08:00,43.7,39.5,29.85,WSW,247,11.2,11.2,85,0.00,,,0.00,WUHU21623XXSP,2013-02-05 03:08:00,
2013-02-05 04:13:00,43.5,39.3,29.84,SSW,202,4.9,13.6,85,0.00,,,0.00,WUHU21623XXSP,2013-02-05 03:13:00,
2013-02-05 04:18:00,43.5,39.3,29.84,SSW,202,10.1,13.6,85,0.00,,,0.00,WUHU21623XXSP,2013-02-05 03:18:00,
2013-02-05 04:23:00,43.5,39.6,29.83,WSW,247,12.1,13.4,86,0.00,,,0.00,WUHU21623XXSP,2013-02-05 03:23:00,
2013-02-05 04:28:00,43.7,39.8,29.83,WSW,247,2.2,12.1,86,0.00,,,0.00,WUHU21623XXSP,2013-02-05 03:28:00,
2013-02-05 04:33:00,43.5,39.6,29.82,SSW,202,11.6,11.6,86,0.00,,,0.00,WUHU21623XXSP,2013-02-05 03:33:00,
2013-02-05 04:38:00,43.5,39.6,29.81,SW,225,9.8,11.6,86,0.00,,,0.00,WUHU21623XXSP,2013-02-05 03:38:00,
2013-02-05 04:43:00,43.7,39.8,29.81,SSW,202,4.9,15.4,86,0.00,,,0.00,WUHU21623XXSP,2013-02-05 03:43:00,
2013-02-05 04:48:00,43.9,40.0,29.82,SW,225,8.5,15.4,86,0.00,,,0.00,WUHU21623XXSP,2013-02-05 03:48:00,
2013-02-05 04:53:00,43.9,40.0,29.81,West,270,6.9,14.8,86,0.00,,,0.00,WUHU21623XXSP,2013-02-05 03:53:00,
2013-02-05 04:58:00,43.9,40.0,29.81,WSW,247,8.9,13.9,86,0.00,,,0.00,WUHU21623XXSP,2013-02-05 03:58:00,
2013-02-05 05:03:00,44.1,39.8,29.80,SW,225,15.2,19.2,85,0.00,,,0.00,WUHU21623XXSP,2013-02-05 04:03:00,
2013-02-05 05:08:00,44.1,39.8,29.80,WSW,247,12.5,19.2,85,0.00,,,0.00,WUHU21623XXSP,2013-02-05 04:08:00,
2013-02-05 05:13:00,44.1,39.8,29.79,SW,225,11.9,12.8,85,0.00,,,0.00,WUHU21623XXSP,2013-02-05 04:13:00,
2013-02-05 05:18:00,44.2,40.0,29.79,SW,225,5.4,16.1,85,0.00,,,0.00,WUHU21623XXSP,2013-02-05 04:18:00,
2013-02-05 05:23:00,44.2,39.7,29.79,West,270,4.7,16.1,84,0.00,,,0.00,WUHU21623XXSP,2013-02-05 04:23:00,
2013-02-05 05:28:00,44.2,39.7,29.78,South,180,11.6,11.6,84,0.00,,,0.00,WUHU21623XXSP,2013-02-05 04:28:00,
2013-02-05 05:33:00,44.2,39.7,29.78,SW,225,8.7,11.6,84,0.00,,,0.00,WUHU21623XXSP,2013-02-05 04:33:00,
2013-02-05 05:38:00,44.2,39.7,29.78,SSW,202,18.3,18.3,84,0.00,,,0.00,WUHU21623XXSP,2013-02-05 04:38:00,
2013-02-05 05:43:00,44.2,39.4,29.78,West,270,8.1,18.3,83,0.00,,,0.00,WUHU21623XXSP,2013-02-05 04:43:00,
2013-02-05 05:48:00,44.2,39.4,29.77,South,180,12.3,14.3,83,0.00,,,0.00,WUHU21623XXSP,2013-02-05 04:48:00,
2013-02-05 05:53:00,44.2,39.4,29.77,WSW,247,18.1,18.1,83,0.00,,,0.00,WUHU21623XXSP,2013-02-05 04:53:00,
2013-02-05 05:58:00,44.2,39.4,29.77,West,270,11.9,18.1,83,0.00,,,0.00,WUHU21623XXSP,2013-02-05 04:58:00,
2013-02-05 06:00:00,44.4,39.6,29.77,WSW,247,3.6,18.1,83,0.00,,,0.00,WUHU21623XXSP,2013-02-05 05:00:00,
2013-02-05 06:05:00,44.4,39.6,29.76,WSW,247,12.3,14.3,83,0.00,,,0.00,WUHU21623XXSP,2013-02-05 05:05:00,
2013-02-05 06:10:00,44.4,39.6,29.75,SSW,202,6.9,13.2,83,0.00,,,0.00,WUHU21623XXSP,2013-02-05 05:10:00,
2013-02-05 06:15:00,44.4,39.3,29.75,SSE,157,13.0,13.2,82,0.00,,,0.00,WUHU21623XXSP,2013-02-05 05:15:00,
2013-02-05 06:20:00,44.4,39.3,29.75,WSW,247,11.2,13.0,82,0.00,,,0.00,WUHU21623XXSP,2013-02-05 05:20:00,
2013-02-05 06:25:00,44.4,39.3,29.75,SW,225,4.3,12.1,82,0.00,,,0.00,WUHU21623XXSP,2013-02-05 05:25:00,
2013-02-05 06:30:00,44.4,39.3,29.75,SW,225,17.7,19.0,82,0.00,,,0.00,WUHU21623XXSP,2013-02-05 05:30:00,
2013-02-05 06:35:00,44.4,39.3,29.74,WSW,247,5.8,19.0,82,0.00,,,0.00,WUHU21623XXSP,2013-02-05 05:35:00,
2013-02-05 06:40:00,44.4,39.3,29.74,SW,225,16.8,20.4,82,0.00,,,0.00,WUHU21623XXSP,2013-02-05 05:40:00,
2013-02-05 06:45:00,44.4,39.3,29.74,WSW,247,3.6,20.4,82,0.00,,,0.00,WUHU21623XXSP,2013-02-05 05:45:00,
2013-02-05 06:50:00,44.4,39.3,29.74,West,270,8.3,21.9,82,0.00,,,0.00,WUHU21623XXSP,2013-02-05 05:50:00,
2013-02-05 06:55:00,44.2,39.4,29.74,West,270,11.9,21.9,83,0.00,,,0.00,WUHU21623XXSP,2013-02-05 05:55:00,
2013-02-05 07:00:00,44.2,39.4,29.73,WSW,247,8.3,18.3,83,0.00,,,0.00,WUHU21623XXSP,2013-02-05 06:00:00,
2013-02-05 07:05:00,44.1,39.2,29.73,WSW,247,12.1,17.2,83,0.00,,,0.00,WUHU21623XXSP,2013-02-05 06:05:00,
2013-02-05 07:10:00,44.2,39.4,29.73,WSW,247,17.9,17.9,83,0.00,,,0.00,WUHU21623XXSP,2013-02-05 06:10:00,
2013-02-05 07:15:00,44.2,39.4,29.72,SW,225,13.4,17.9,83,0.00,,,0.00,WUHU21623XXSP,2013-02-05 06:15:00,
2013-02-05 07:20:00,44.2,39.4,29.73,West,270,8.5,20.1,83,0.00,,,0.00,WUHU21623XXSP,2013-02-05 06:20:00,
2013-02-05 07:25:00,43.9,39.3,29.73,NW,315,9.2,21.5,84,0.00,,,0.00,WUHU21623XXSP,2013-02-05 06:25:00,
2013-02-05 07:30:00,43.5,39.0,29.74,WSW,247,25.7,25.7,84,0.02,,,0.02,WUHU21623XXSP,2013-02-05 06:30:00,
2013-02-05 07:35:00,43.2,38.9,29.75,WNW,292,6.7,25.7,85,0.02,,,0.02,WUHU21623XXSP,2013-02-05 06:35:00,
2013-02-05 07:40:00,42.6,38.7,29.75,WSW,247,11.2,23.0,86,0.02,,,0.02,WUHU21623XXSP,2013-02-05 06:40:00,
2013-02-05 07:45:00,42.6,39.0,29.75,West,270,15.0,15.0,87,0.02,,,0.02,WUHU21623XXSP,2013-02-05 06:45:00,
2013-02-05 07:50:00,42.4,38.8,29.75,WNW,292,16.3,19.2,87,0.02,,,0.02,WUHU21623XXSP,2013-02-05 06:50:00,
2013-02-05 07:55:00,42.4,38.8,29.75,West,270,8.1,19.2,87,0.02,,,0.02,WUHU21623XXSP,2013-02-05 06:55:00,
2013-02-05 08:00:00,42.3,38.6,29.75,West,270,10.5,17.9,87,0.02,,,0.02,WUHU21623XXSP,2013-02-05 07:00:00,
2013-02-05 08:05:00,42.1,38.8,29.75,WSW,247,11.9,18.8,88,0.02,,,0.02,WUHU21623XXSP,2013-02-05 07:05:00,
2013-02-05 08:10:00,42.1,38.8,29.75,West,270,8.3,18.8,88,0.02,,,0.02,WUHU21623XXSP,2013-02-05 07:10:00,
2013-02-05 08:15:00,41.9,38.6,29.75,West,270,18.8,18.8,88,0.04,,,0.02,WUHU21623XXSP,2013-02-05 07:15:00,
2013-02-05 08:20:00,41.5,38.2,29.75,WSW,247,10.7,18.8,88,0.04,,,0.04,WUHU21623XXSP,2013-02-05 07:20:00,
2013-02-05 08:25:00,41.2,37.9,29.76,WNW,292,16.1,16.6,88,0.04,,,0.04,WUHU21623XXSP,2013-02-05 07:25:00,
2013-02-05 08:30:00,40.8,37.5,29.76,NW,315,11.0,20.4,88,0.02,,,0.04,WUHU21623XXSP,2013-02-05 07:30:00,
2013-02-05 08:35:00,40.8,37.5,29.75,West,270,3.6,20.4,88,0.02,,,0.04,WUHU21623XXSP,2013-02-05 07:35:00,
2013-02-05 08:40:00,40.6,37.3,29.75,West,270,7.6,13.6,88,0.02,,,0.04,WUHU21623XXSP,2013-02-05 07:40:00,
2013-02-05 08:45:00,40.5,37.1,29.75,West,270,5.4,14.3,88,0.02,,,0.04,WUHU21623XXSP,2013-02-05 07:45:00,
2013-02-05 08:50:00,40.3,37.0,29.76,NNW,337,7.6,14.3,88,0.02,,,0.04,WUHU21623XXSP,2013-02-05 07:50:00,
2013-02-05 08:55:00,40.3,37.0,29.76,SW,225,13.4,17.0,88,0.02,,,0.04,WUHU21623XXSP,2013-02-05 07:55:00,
2013-02-05 09:00:00,40.3,36.7,29.75,WSW,247,4.7,17.0,87,0.02,,,0.04,WUHU21623XXSP,2013-02-05 08:00:00,
2013-02-05 09:05:00,40.3,36.7,29.75,WSW,247,10.3,11.0,87,0.02,,,0.04,WUHU21623XXSP,2013-02-05 08:05:00,
2013-02-05 09:10:00,40.1,36.2,29.75,West,270,7.6,10.3,86,0.02,,,0.04,WUHU21623XXSP,2013-02-05 08:10:00,
2013-02-05 09:15:00,40.1,36.2,29.76,WSW,247,7.8,14.5,86,0.00,,,0.04,WUHU21623XXSP,2013-02-05 08:15:00,
2013-02-05 09:20:00,40.1,36.2,29.76,WSW,247,13.9,14.5,86,0.00,,,0.04,WUHU21623XXSP,2013-02-05 08:20:00,
2013-02-05 09:25:00,40.1,36.2,29.75,West,270,5.1,13.9,86,0.00,,,0.04,WUHU21623XXSP,2013-02-05 08:25:00,
2013-02-05 09:30:00,40.3,36.4,29.75,SW,225,12.5,12.5,86,0.00,,,0.04,WUHU21623XXSP,2013-02-05 08:30:00,
2013-02-05 09:35:00,40.1,36.2,29.75,West,270,9.6,15.0,86,0.00,,,0.04,WUHU21623XXSP,2013-02-05 08:35:00,
2013-02-05 09:40:00,39.9,35.7,29.75,West,270,6.9,15.0,85,0.00,,,0.04,WUHU21623XXSP,2013-02-05 08:40:00,
2013-02-05 09:45:00,39.9,35.7,29.74,WNW,292,16.8,16.8,85,0.00,,,0.04,WUHU21623XXSP,2013-02-05 08:45:00,
2013-02-05 09:50:00,40.1,35.9,29.73,West,270,4.0,16.8,85,0.00,,,0.04,WUHU21623XXSP,2013-02-05 08:50:00,
2013-02-05 09:55:00,39.9,35.7,29.74,WSW,247,7.2,10.7,85,0.00,,,0.04,WUHU21623XXSP,2013-02-05 08:55:00,
2013-02-05 10:00:00,40.1,35.9,29.74,WSW,247,5.8,10.7,85,0.00,,,0.04,WUHU21623XXSP,2013-02-05 09:00:00,
2013-02-05 10:05:00,40.3,36.1,29.74,West,270,2.9,9.8,85,0.00,,,0.04,WUHU21623XXSP,2013-02-05 09:05:00,
2013-02-05 10:10:00,40.3,36.1,29.74,WNW,292,5.6,10.1,85,0.00,,,0.04,WUHU21623XXSP,2013-02-05 09:10:00,
2013-02-05 10:15:00,40.3,36.1,29.73,West,270,5.8,13.2,85,0.00,,,0.04,WUHU21623XXSP,2013-02-05 09:15:00,
2013-02-05 10:20:00,40.3,36.1,29.74,West,270,3.6,13.2,85,0.00,,,0.04,WUHU21623XXSP,2013-02-05 09:20:00,
2013-02-05 10:25:00,40.3,36.4,29.74,West,270,8.1,17.0,86,0.00,,,0.04,WUHU21623XXSP,2013-02-05 09:25:00,
2013-02-05 10:30:00,40.5,36.2,29.74,West,270,3.8,17.0,85,0.00,,,0.04,WUHU21623XXSP,2013-02-05 09:30:00,
2013-02-05 10:35:00,40.6,36.4,29.74,WSW,247,6.7,8.9,85,0.00,,,0.04,WUHU21623XXSP,2013-02-05 09:35:00,
2013-02-05 10:40:00,40.6,36.4,29.73,WSW,247,7.2,8.9,85,0.00,,,0.04,WUHU21623XXSP,2013-02-05 09:40:00,
2013-02-05 10:45:00,40.8,36.6,29.73,West,270,10.1,11.6,85,0.00,,,0.04,WUHU21623XXSP,2013-02-05 09:45:00,
2013-02-05 10:50:00,40.8,36.6,29.72,WSW,247,8.9,11.6,85,0.00,,,0.04,WUHU21623XXSP,2013-02-05 09:50:00,
2013-02-05 10:55:00,41.0,36.5,29.71,West,270,9.8,13.9,84,0.00,,,0.04,WUHU21623XXSP,2013-02-05 09:55:00,
2013-02-05 11:00:00,41.2,36.6,29.71,WSW,247,11.2,13.9,84,0.00,,,0.04,WUHU21623XXSP,2013-02-05 10:00:00,
2013-02-05 11:05:00,41.2,36.3,29.71,West,270,10.1,11.2,83,0.00,,,0.04,WUHU21623XXSP,2013-02-05 10:05:00,
2013-02-05 11:10:00,41.2,36.3,29.72,SW,225,6.3,18.1,83,0.00,,,0.04,WUHU21623XXSP,2013-02-05 10:10:00,
2013-02-05 11:15:00,41.4,36.5,29.72,West,270,8.9,18.1,83,0.00,,,0.04,WUHU21623XXSP,2013-02-05 10:15:00,
2013-02-05 11:20:00,41.5,36.7,29.71,WSW,247,8.1,11.9,83,0.00,,,0.04,WUHU21623XXSP,2013-02-05 10:20:00,
2013-02-05 11:25:00,41.5,36.4,29.71,WSW,247,8.9,11.9,82,0.00,,,0.04,WUHU21623XXSP,2013-02-05 10:25:00,
2013-02-05 11:30:00,41.4,36.2,29.71,WSW,247,14.5,15.9,82,0.00,,,0.04,WUHU21623XXSP,2013-02-05 10:30:00,
2013-02-05 11:35:00,41.7,36.6,29.71,SW,225,15.9,15.9,82,0.00,,,0.04,WUHU21623XXSP,2013-02-05 10:35:00,
2013-02-05 11:40:00,41.9,36.4,29.70,West,270,16.6,17.7,81,0.00,,,0.04,WUHU21623XXSP,2013-02-05 10:40:00,
2013-02-05 11:45:00,42.1,36.3,29.71,WSW,247,13.6,17.7,80,0.00,,,0.04,WUHU21623XXSP,2013-02-05 10:45:00,
2013-02-05 11:50:00,42.1,36.3,29.71,WSW,247,18.3,18.3,80,0.00,,,0.04,WUHU21623XXSP,2013-02-05 10:50:00,
2013-02-05 11:55:00,42.6,36.5,29.70,WSW,247,7.6,18.6,78,0.00,,,0.04,WUHU21623XXSP,2013-02-05 10:55:00,
2013-02-05 12:00:00,42.6,36.2,29.70,WSW,247,15.4,18.6,78,0.00,,,0.04,WUHU21623XXSP,2013-02-05 11:00:00,
2013-02-05 12:05:00,43.0,36.6,29.69,WSW,247,10.3,16.3,78,0.00,,,0.04,WUHU21623XXSP,2013-02-05 11:05:00,
2013-02-05 12:10:00,43.0,36.2,29.68,West,270,12.3,17.2,77,0.00,,,0.04,WUHU21623XXSP,2013-02-05 11:10:00,
2013-02-05 12:15:00,43.2,36.4,29.68,West,270,6.0,17.2,77,0.00,,,0.04,WUHU21623XXSP,2013-02-05 11:15:00,
2013-02-05 12:20:00,43.5,36.4,29.67,SW,225,16.1,16.1,76,0.00,,,0.04,WUHU21623XXSP,2013-02-05 11:20:00,
2013-02-05 12:25:00,44.1,36.6,29.66,WSW,247,9.6,16.1,75,0.00,,,0.04,WUHU21623XXSP,2013-02-05 11:25:00,
2013-02-05 12:30:00,44.4,36.3,29.67,West,270,8.3,15.2,73,0.00,,,0.04,WUHU21623XXSP,2013-02-05 11:30:00,
2013-02-05 12:35:00,43.9,35.9,29.67,WSW,247,8.3,15.2,73,0.00,,,0.04,WUHU21623XXSP,2013-02-05 11:35:00,
2013-02-05 12:40:00,43.7,35.6,29.67,WSW,247,11.9,13.9,73,0.00,,,0.04,WUHU21623XXSP,2013-02-05 11:40:00,
2013-02-05 12:45:00,43.7,35.6,29.66,West,270,8.9,13.9,73,0.00,,,0.04,WUHU21623XXSP,2013-02-05 11:45:00,
2013-02-05 12:50:00,43.5,35.4,29.67,West,270,11.9,13.9,73,0.00,,,0.04,WUHU21623XXSP,2013-02-05 11:50:00,
2013-02-05 12:55:00,43.3,35.3,29.67,WSW,247,14.3,16.6,73,0.00,,,0.04,WUHU21623XXSP,2013-02-05 11:55:00,
2013-02-05 13:00:00,43.2,35.4,29.66,WNW,292,9.4,16.6,74,0.00,,,0.04,WUHU21623XXSP,2013-02-05 12:00:00,
2013-02-05 13:05:00,43.0,35.3,29.66,West,270,14.3,16.3,74,0.00,,,0.04,WUHU21623XXSP,2013-02-05 12:05:00,
2013-02-05 13:10:00,43.0,35.3,29.65,WSW,247,13.4,17.2,74,0.00,,,0.04,WUHU21623XXSP,2013-02-05 12:10:00,
2013-02-05 13:15:00,43.2,35.4,29.65,WSW,247,12.8,21.5,74,0.00,,,0.04,WUHU21623XXSP,2013-02-05 12:15:00,
2013-02-05 13:20:00,43.2,35.4,29.65,West,270,9.8,21.5,74,0.00,,,0.04,WUHU21623XXSP,2013-02-05 12:20:00,
2013-02-05 13:25:00,43.0,35.3,29.64,West,270,8.9,20.4,74,0.00,,,0.04,WUHU21623XXSP,2013-02-05 12:25:00,
2013-02-05 13:30:00,43.3,35.6,29.64,WSW,247,7.6,20.4,74,0.00,,,0.04,WUHU21623XXSP,2013-02-05 12:30:00,
2013-02-05 13:35:00,43.9,36.1,29.64,WSW,247,17.2,18.3,74,0.00,,,0.04,WUHU21623XXSP,2013-02-05 12:35:00,
2013-02-05 13:40:00,43.9,35.8,29.62,WSW,247,15.7,17.2,73,0.00,,,0.04,WUHU21623XXSP,2013-02-05 12:40:00,
2013-02-05 13:45:00,44.4,36.3,29.62,WSW,247,9.8,15.7,73,0.00,,,0.04,WUHU21623XXSP,2013-02-05 12:45:00,
2013-02-05 13:50:00,44.4,35.9,29.61,WSW,247,8.3,14.5,72,0.00,,,0.04,WUHU21623XXSP,2013-02-05 12:50:00,
2013-02-05 13:55:00,44.8,35.9,29.60,WSW,247,20.4,20.4,71,0.00,,,0.04,WUHU21623XXSP,2013-02-05 12:55:00,
2013-02-05 14:00:00,44.4,35.3,29.61,WSW,247,12.1,20.4,70,0.00,,,0.04,WUHU21623XXSP,2013-02-05 13:00:00,
2013-02-05 14:05:00,44.4,35.3,29.61,WSW,247,11.4,18.3,70,0.00,,,0.04,WUHU21623XXSP,2013-02-05 13:05:00,
2013-02-05 14:10:00,45.1,35.8,29.61,WSW,247,15.9,18.3,70,0.00,,,0.04,WUHU21623XXSP,2013-02-05 13:10:00,
2013-02-05 14:15:00,44.4,34.5,29.61,WSW,247,6.7,18.8,68,0.00,,,0.04,WUHU21623XXSP,2013-02-05 13:15:00,
2013-02-05 14:20:00,44.4,34.5,29.61,West,270,9.8,18.8,68,0.00,,,0.04,WUHU21623XXSP,2013-02-05 13:20:00,
2013-02-05 14:25:00,44.4,34.1,29.60,West,270,13.0,15.7,67,0.00,,,0.04,WUHU21623XXSP,2013-02-05 13:25:00,
2013-02-05 14:30:00,44.4,34.1,29.60,WSW,247,8.1,18.3,67,0.00,,,0.04,WUHU21623XXSP,2013-02-05 13:30:00,
2013-02-05 14:35:00,44.4,34.1,29.59,SW,225,12.3,18.3,67,0.00,,,0.04,WUHU21623XXSP,2013-02-05 13:35:00,
2013-02-05 14:40:00,44.4,34.1,29.60,West,270,7.8,15.2,67,0.00,,,0.04,WUHU21623XXSP,2013-02-05 13:40:00,
2013-02-05 14:45:00,44.1,33.8,29.59,WSW,247,9.2,18.1,67,0.00,,,0.04,WUHU21623XXSP,2013-02-05 13:45:00,
2013-02-05 14:50:00,43.7,33.4,29.59,WSW,247,8.5,18.1,67,0.00,,,0.04,WUHU21623XXSP,2013-02-05 13:50:00,
2013-02-05 14:55:00,43.3,32.7,29.60,WSW,247,21.3,21.3,66,0.00,,,0.04,WUHU21623XXSP,2013-02-05 13:55:00,
2013-02-05 15:00:00,43.2,32.5,29.59,SW,225,10.5,21.3,66,0.00,,,0.04,WUHU21623XXSP,2013-02-05 14:00:00,
2013-02-05 15:05:00,43.0,32.4,29.59,West,270,15.4,19.5,66,0.00,,,0.04,WUHU21623XXSP,2013-02-05 14:05:00,
2013-02-05 15:10:00,42.6,32.4,29.59,West,270,8.5,19.5,67,0.00,,,0.04,WUHU21623XXSP,2013-02-05 14:10:00,
2013-02-05 15:15:00,42.4,32.3,29.59,West,270,15.4,18.3,67,0.00,,,0.04,WUHU21623XXSP,2013-02-05 14:15:00,
2013-02-05 15:20:00,42.1,31.5,29.59,WSW,247,7.4,18.3,67,0.00,,,0.04,WUHU21623XXSP,2013-02-05 14:20:00,
2013-02-05 15:25:00,41.9,31.7,29.58,WSW,247,11.4,16.3,67,0.00,,,0.04,WUHU21623XXSP,2013-02-05 14:25:00,
2013-02-05 15:30:00,41.7,31.6,29.58,WNW,292,15.2,17.2,67,0.00,,,0.04,WUHU21623XXSP,2013-02-05 14:30:00,
2013-02-05 15:35:00,41.5,31.4,29.58,WSW,247,13.0,17.2,67,0.00,,,0.04,WUHU21623XXSP,2013-02-05 14:35:00,
2013-02-05 15:40:00,41.5,31.8,29.59,WSW,247,7.8,13.0,68,0.00,,,0.04,WUHU21623XXSP,2013-02-05 14:40:00,
2013-02-05 15:45:00,41.2,31.8,29.58,West,270,5.1,14.3,69,0.00,,,0.04,WUHU21623XXSP,2013-02-05 14:45:00,
2013-02-05 15:50:00,40.8,31.4,29.58,West,270,9.2,14.3,69,0.00,,,0.04,WUHU21623XXSP,2013-02-05 14:50:00,
2013-02-05 15:55:00,40.8,31.8,29.58,WSW,247,4.7,18.8,70,0.00,,,0.04,WUHU21623XXSP,2013-02-05 14:55:00,
2013-02-05 16:00:00,40.6,32.0,29.57,SW,225,10.1,18.8,71,0.00,,,0.04,WUHU21623XXSP,2013-02-05 15:00:00,
2013-02-05 16:05:00,40.8,32.1,29.57,West,270,10.5,11.2,71,0.00,,,0.04,WUHU21623XXSP,2013-02-05 15:05:00,
2013-02-05 16:10:00,41.0,32.6,29.57,West,270,6.9,11.2,72,0.00,,,0.04,WUHU21623XXSP,2013-02-05 15:10:00,
2013-02-05 16:15:00,41.5,33.0,29.58,West,270,10.3,15.0,71,0.00,,,0.04,WUHU21623XXSP,2013-02-05 15:15:00,
2013-02-05 16:20:00,41.7,33.0,29.58,SSW,202,11.4,15.0,71,0.00,,,0.04,WUHU21623XXSP,2013-02-05 15:20:00,
2013-02-05 16:25:00,41.7,33.0,29.57,WSW,247,8.1,12.8,71,0.00,,,0.04,WUHU21623XXSP,2013-02-05 15:25:00,
2013-02-05 16:30:00,41.5,32.5,29.57,SW,225,8.3,11.6,70,0.00,,,0.04,WUHU21623XXSP,2013-02-05 15:30:00,
2013-02-05 16:35:00,41.5,32.1,29.57,WSW,247,7.6,11.9,69,0.00,,,0.04,WUHU21623XXSP,2013-02-05 15:35:00,
2013-02-05 16:40:00,41.5,32.1,29.57,West,270,10.3,15.9,69,0.00,,,0.04,WUHU21623XXSP,2013-02-05 15:40:00,
2013-02-05 16:45:00,41.5,32.1,29.57,West,270,4.3,15.9,69,0.00,,,0.04,WUHU21623XXSP,2013-02-05 15:45:00,
2013-02-05 16:50:00,41.2,31.8,29.57,WSW,247,9.6,18.1,69,0.00,,,0.04,WUHU21623XXSP,2013-02-05 15:50:00,
2013-02-05 16:55:00,41.2,32.2,29.57,WSW,247,11.2,19.0,70,0.00,,,0.04,WUHU21623XXSP,2013-02-05 15:55:00,
2013-02-05 17:00:00,41.2,32.2,29.57,West,270,17.0,19.0,70,0.00,,,0.04,WUHU21623XXSP,2013-02-05 16:00:00,
2013-02-05 17:05:00,41.2,32.5,29.57,West,270,17.7,17.7,71,0.00,,,0.04,WUHU21623XXSP,2013-02-05 16:05:00,
2013-02-05 17:10:00,40.8,32.1,29.57,West,270,5.1,17.7,71,0.00,,,0.04,WUHU21623XXSP,2013-02-05 16:10:00,
2013-02-05 17:15:00,40.8,32.5,29.57,West,270,7.2,11.0,72,0.00,,,0.04,WUHU21623XXSP,2013-02-05 16:15:00,
2013-02-05 17:20:00,40.8,32.8,29.57,WSW,247,7.4,11.0,73,0.00,,,0.04,WUHU21623XXSP,2013-02-05 16:20:00,
2013-02-05 17:25:00,40.8,32.8,29.57,West,270,8.1,10.7,73,0.00,,,0.04,WUHU21623XXSP,2013-02-05 16:25:00,
2013-02-05 17:30:00,41.0,33.0,29.57,WSW,247,7.4,12.3,73,0.00,,,0.04,WUHU21623XXSP,2013-02-05 16:30:00,
2013-02-05 17:35:00,41.0,33.0,29.57,WSW,247,11.0,12.3,73,0.00,,,0.04,WUHU21623XXSP,2013-02-05 16:35:00,
2013-02-05 17:40:00,41.0,33.3,29.57,SW,225,11.9,21.7,74,0.00,,,0.04,WUHU21623XXSP,2013-02-05 16:40:00,
2013-02-05 17:45:00,40.8,33.1,29.57,West,270,14.8,21.7,74,0.00,,,0.04,WUHU21623XXSP,2013-02-05 16:45:00,
2013-02-05 17:50:00,40.1,32.1,29.57,West,270,14.3,17.4,73,0.00,,,0.04,WUHU21623XXSP,2013-02-05 16:50:00,
2013-02-05 17:55:00,39.7,31.7,29.57,West,270,9.2,15.2,72,0.00,,,0.04,WUHU21623XXSP,2013-02-05 16:55:00,
2013-02-05 18:00:00,39.7,31.4,29.57,SSW,202,6.0,16.6,72,0.00,,,0.04,WUHU21623XXSP,2013-02-05 17:00:00,
2013-02-05 18:05:00,39.6,31.2,29.57,WNW,292,4.7,16.6,72,0.00,,,0.04,WUHU21623XXSP,2013-02-05 17:05:00,
2013-02-05 18:10:00,39.2,30.9,29.57,WNW,292,5.4,12.3,71,0.00,,,0.04,WUHU21623XXSP,2013-02-05 17:10:00,
2013-02-05 18:15:00,39.0,30.4,29.57,West,270,4.3,9.4,71,0.00,,,0.04,WUHU21623XXSP,2013-02-05 17:15:00,
2013-02-05 18:20:00,39.0,30.4,29.57,West,270,6.0,11.4,71,0.00,,,0.04,WUHU21623XXSP,2013-02-05 17:20:00,
2013-02-05 18:25:00,39.0,29.7,29.58,SW,225,6.9,15.9,69,0.00,,,0.04,WUHU21623XXSP,2013-02-05 17:25:00,
2013-02-05 18:30:00,39.2,29.8,29.59,West,270,4.7,15.9,69,0.00,,,0.04,WUHU21623XXSP,2013-02-05 17:30:00,
2013-02-05 18:35:00,39.0,29.7,29.58,WSW,247,5.4,14.3,69,0.00,,,0.04,WUHU21623XXSP,2013-02-05 17:35:00,
2013-02-05 18:40:00,39.0,30.0,29.59,WSW,247,15.0,18.3,70,0.00,,,0.04,WUHU21623XXSP,2013-02-05 17:40:00,
2013-02-05 18:45:00,39.0,30.7,29.59,West,270,18.3,18.3,72,0.00,,,0.04,WUHU21623XXSP,2013-02-05 17:45:00,
2013-02-05 18:50:00,39.2,30.9,29.59,West,270,6.3,18.3,72,0.00,,,0.04,WUHU21623XXSP,2013-02-05 17:50:00,
2013-02-05 18:55:00,39.0,31.0,29.59,West,270,10.3,15.7,73,0.00,,,0.04,WUHU21623XXSP,2013-02-05 17:55:00,
2013-02-05 19:00:00,39.0,31.0,29.59,West,270,13.0,15.9,73,0.00,,,0.04,WUHU21623XXSP,2013-02-05 18:00:00,
2013-02-05 19:05:00,39.0,31.0,29.59,West,270,15.2,15.2,73,0.00,,,0.04,WUHU21623XXSP,2013-02-05 18:05:00,
2013-02-05 19:10:00,38.8,31.2,29.59,West,270,4.0,15.2,74,0.00,,,0.04,WUHU21623XXSP,2013-02-05 18:10:00,
2013-02-05 19:15:00,38.8,31.6,29.59,WSW,247,9.8,9.8,75,0.00,,,0.04,WUHU21623XXSP,2013-02-05 18:15:00,
2013-02-05 19:20:00,38.5,31.2,29.60,WSW,247,10.7,12.1,75,0.00,,,0.04,WUHU21623XXSP,2013-02-05 18:20:00,
2013-02-05 19:25:00,38.1,31.2,29.59,WSW,247,9.6,12.1,76,0.00,,,0.04,WUHU21623XXSP,2013-02-05 18:25:00,
2013-02-05 19:30:00,38.1,31.2,29.59,West,270,8.5,12.8,76,0.00,,,0.04,WUHU21623XXSP,2013-02-05 18:30:00,
2013-02-05 19:35:00,38.1,31.5,29.59,WSW,247,12.8,12.8,77,0.00,,,0.04,WUHU21623XXSP,2013-02-05 18:35:00,
2013-02-05 19:40:00,38.3,31.7,29.60,WSW,247,10.3,12.8,77,0.00,,,0.04,WUHU21623XXSP,2013-02-05 18:40:00,
2013-02-05 19:45:00,38.3,31.7,29.60,WSW,247,8.9,13.6,77,0.00,,,0.04,WUHU21623XXSP,2013-02-05 18:45:00,
2013-02-05 19:50:00,38.3,32.1,29.60,West,270,5.4,15.9,78,0.00,,,0.04,WUHU21623XXSP,2013-02-05 18:50:00,
2013-02-05 19:55:00,38.3,32.1,29.60,SW,225,5.8,15.9,78,0.00,,,0.04,WUHU21623XXSP,2013-02-05 18:55:00,
2013-02-05 20:00:00,38.5,32.4,29.59,WNW,292,4.9,12.3,79,0.00,,,0.04,WUHU21623XXSP,2013-02-05 19:00:00,
2013-02-05 20:05:00,38.1,32.2,29.59,WSW,247,11.4,11.4,79,0.00,,,0.04,WUHU21623XXSP,2013-02-05 19:05:00,
2013-02-05 20:10:00,37.9,32.0,29.59,West,270,5.1,12.3,79,0.00,,,0.04,WUHU21623XXSP,2013-02-05 19:10:00,
2013-02-05 20:15:00,37.8,32.2,29.59,WSW,247,6.9,12.3,80,0.00,,,0.04,WUHU21623XXSP,2013-02-05 19:15:00,
2013-02-05 20:20:00,37.6,32.0,29.59,West,270,3.6,12.3,80,0.00,,,0.04,WUHU21623XXSP,2013-02-05 19:20:00,
2013-02-05 20:25:00,37.6,32.0,29.58,West,270,6.9,7.8,80,0.00,,,0.04,WUHU21623XXSP,2013-02-05 19:25:00,
2013-02-05 20:30:00,37.4,31.8,29.58,SW,225,2.0,7.8,80,0.00,,,0.04,WUHU21623XXSP,2013-02-05 19:30:00,
2013-02-05 20:35:00,37.2,31.9,29.58,SSW,202,8.3,8.3,81,0.00,,,0.04,WUHU21623XXSP,2013-02-05 19:35:00,
2013-02-05 20:40:00,37.0,31.7,29.59,WSW,247,2.9,8.3,81,0.00,,,0.04,WUHU21623XXSP,2013-02-05 19:40:00,
2013-02-05 20:45:00,37.0,31.7,29.59,SW,225,5.1,9.2,81,0.00,,,0.04,WUHU21623XXSP,2013-02-05 19:45:00,
2013-02-05 20:50:00,37.0,32.0,29.59,WSW,247,3.4,9.2,82,0.00,,,0.04,WUHU21623XXSP,2013-02-05 19:50:00,
2013-02-05 20:55:00,36.9,31.9,29.59,WSW,247,3.1,8.5,82,0.00,,,0.04,WUHU21623XXSP,2013-02-05 19:55:00,
2013-02-05 21:00:00,36.9,31.9,29.59,WSW,247,2.5,9.2,82,0.00,,,0.04,WUHU21623XXSP,2013-02-05 20:00:00,
2013-02-05 21:05:00,36.7,31.7,29.58,WSW,247,5.8,9.2,82,0.00,,,0.04,WUHU21623XXSP,2013-02-05 20:05:00,
2013-02-05 21:10:00,36.7,31.7,29.58,SW,225,2.7,7.8,82,0.00,,,0.04,WUHU21623XXSP,2013-02-05 20:10:00,
2013-02-05 21:15:00,36.7,31.7,29.59,SW,225,6.9,7.8,82,0.00,,,0.04,WUHU21623XXSP,2013-02-05 20:15:00,
2013-02-05 21:20:00,36.9,32.1,29.58,WSW,247,6.3,7.2,83,0.00,,,0.04,WUHU21623XXSP,2013-02-05 20:20:00,
2013-02-05 21:25:00,37.2,32.2,29.58,SSW,202,5.4,6.9,82,0.00,,,0.04,WUHU21623XXSP,2013-02-05 20:25:00,
2013-02-05 21:30:00,37.2,32.2,29.58,WSW,247,3.1,11.2,82,0.00,,,0.04,WUHU21623XXSP,2013-02-05 20:30:00,
2013-02-05 21:35:00,37.2,32.2,29.57,WSW,247,11.4,11.4,82,0.00,,,0.04,WUHU21623XXSP,2013-02-05 20:35:00,
2013-02-05 21:40:00,37.2,32.2,29.58,WSW,247,2.2,12.8,82,0.00,,,0.04,WUHU21623XXSP,2013-02-05 20:40:00,
2013-02-05 21:45:00,37.2,31.9,29.57,SW,225,2.0,12.8,81,0.00,,,0.04,WUHU21623XXSP,2013-02-05 20:45:00,
2013-02-05 21:50:00,37.0,31.7,29.57,WSW,247,11.4,11.4,81,0.00,,,0.04,WUHU21623XXSP,2013-02-05 20:50:00,
2013-02-05 21:55:00,37.0,32.0,29.57,SW,225,2.5,13.2,82,0.00,,,0.04,WUHU21623XXSP,2013-02-05 20:55:00,
2013-02-05 22:00:00,36.9,31.9,29.57,SSW,202,9.6,13.2,82,0.00,,,0.04,WUHU21623XXSP,2013-02-05 21:00:00,
2013-02-05 22:05:00,36.7,31.7,29.57,West,270,8.1,12.8,82,0.00,,,0.04,WUHU21623XXSP,2013-02-05 21:05:00,
2013-02-05 22:10:00,36.7,31.7,29.57,WSW,247,13.0,13.0,82,0.00,,,0.04,WUHU21623XXSP,2013-02-05 21:10:00,
2013-02-05 22:15:00,36.7,31.7,29.57,WSW,247,3.1,13.0,82,0.00,,,0.04,WUHU21623XXSP,2013-02-05 21:15:00,
2013-02-05 22:20:00,36.7,32.0,29.57,WSW,247,7.4,9.2,83,0.00,,,0.04,WUHU21623XXSP,2013-02-05 21:20:00,
2013-02-05 22:25:00,36.5,31.8,29.56,WSW,247,3.1,9.2,83,0.00,,,0.04,WUHU21623XXSP,2013-02-05 21:25:00,
2013-02-05 22:30:00,36.7,32.0,29.56,SSW,202,7.6,9.2,83,0.00,,,0.04,WUHU21623XXSP,2013-02-05 21:30:00,
2013-02-05 22:35:00,36.7,32.0,29.56,SSW,202,8.7,8.7,83,0.00,,,0.04,WUHU21623XXSP,2013-02-05 21:35:00,
2013-02-05 22:40:00,36.7,32.0,29.56,SSE,157,13.4,13.4,83,0.00,,,0.04,WUHU21623XXSP,2013-02-05 21:40:00,
2013-02-05 22:45:00,36.5,31.8,29.55,SSW,202,3.1,13.4,83,0.00,,,0.04,WUHU21623XXSP,2013-02-05 21:45:00,
2013-02-05 22:50:00,36.5,31.8,29.55,SSW,202,6.3,11.9,83,0.00,,,0.04,WUHU21623XXSP,2013-02-05 21:50:00,
2013-02-05 22:55:00,36.7,32.3,29.55,WSW,247,2.7,12.3,84,0.00,,,0.04,WUHU21623XXSP,2013-02-05 21:55:00,
2013-02-05 23:00:00,36.7,32.3,29.54,SW,225,2.5,12.3,84,0.00,,,0.04,WUHU21623XXSP,2013-02-05 22:00:00,
2013-02-05 23:05:00,36.7,32.3,29.54,South,180,5.8,11.2,84,0.00,,,0.04,WUHU21623XXSP,2013-02-05 22:05:00,
2013-02-05 23:10:00,36.7,32.3,29.54,SSW,202,10.1,10.1,84,0.00,,,0.04,WUHU21623XXSP,2013-02-05 22:10:00,
2013-02-05 23:15:00,36.7,32.3,29.54,SW,225,13.0,13.6,84,0.00,,,0.04,WUHU21623XXSP,2013-02-05 22:15:00,
2013-02-05 23:20:00,36.7,32.3,29.53,SW,225,5.1,13.6,84,0.00,,,0.04,WUHU21623XXSP,2013-02-05 22:20:00,
2013-02-05 23:25:00,36.9,32.4,29.53,South,180,10.5,12.1,84,0.00,,,0.04,WUHU21623XXSP,2013-02-05 22:25:00,
2013-02-05 23:30:00,36.7,32.3,29.52,West,270,3.8,12.1,84,0.00,,,0.04,WUHU21623XXSP,2013-02-05 22:30:00,
2013-02-05 23:35:00,36.7,32.3,29.52,South,180,4.7,10.3,84,0.00,,,0.04,WUHU21623XXSP,2013-02-05 22:35:00,
2013-02-05 23:40:00,36.9,32.4,29.52,SSW,202,19.5,19.5,84,0.00,,,0.04,WUHU21623XXSP,2013-02-05 22:40:00,
2013-02-05 23:45:00,36.9,32.4,29.52,SW,225,7.6,19.5,84,0.00,,,0.04,WUHU21623XXSP,2013-02-05 22:45:00,
2013-02-05 23:50:00,36.9,32.4,29.52,WSW,247,5.4,17.2,84,0.00,,,0.04,WUHU21623XXSP,2013-02-05 22:50:00,
2013-02-05 23:55:00,37.0,32.6,29.51,SW,225,8.9,15.2,84,0.00,,,0.04,WUHU21623XXSP,2013-02-05 22:55:00,